Skip Page Navigation
NASA JPL Caltech
NASA Logo - Jet Propulsion Laboratory + View the NASA Portal
+ Center for Near-Earth Object Studies
JPL Home Earth Solar System Stars & Galaxies Technology
JPL Solar System Dynamics
BODIES ORBITS EPHEMERIDES TOOLS PHYSICAL DATA DISCOVERY FAQ SITE MAP
JPL Small-Body Database Browser
Search: [ help ]  
10195 Nebraska (1996 RS5)
Classification: Main-belt Asteroid          SPK-ID: 2010195
Ephemeris | Orbit Diagram | Orbital Elements | Mission Design | Physical Parameters | Discovery Circumstances | Close-Approach Data ]

[ show orbit diagram ]
Orbital Elements at Epoch 2459200.5 (2020-Dec-17.0) TDB
Reference: JPL 42 (heliocentric ecliptic J2000)
 Element Value Uncertainty (1-sigma)   Units 
e .1864001914045838 2.3287e-08  
a 2.887054835080255 1.1789e-08 au
q 2.348907261225766 7.0908e-08 au
i 14.50808448484721 6.6056e-07 deg
node 14.68060427764497 3.4454e-06 deg
peri 346.3721001944855 5.6292e-06 deg
M 350.1637334554782 4.6209e-06 deg
tp 2459249.456319897708
(2021-Feb-03.95631990)
2.313e-05 TDB
period 1791.764698872516
4.91
1.0974e-05
3.005e-08
d
yr
n .2009192391314179 1.2306e-09 deg/d
Q 3.425202408934743 1.3986e-08 au
  Orbit Determination Parameters
   # obs. used (total)      2708  
   data-arc span      12528 days (34.30 yr)  
   first obs. used      1986-10-02  
   last obs. used      2021-01-19  
   planetary ephem.      DE441  
   SB-pert. ephem.      SB441-N16  
   condition code      0  
   norm. resid. RMS      .38647  
   source      ORB  
   producer      Otto Matic  
   solution date      2021-Apr-12 21:55:38  

Additional Information
 Earth MOID = 1.34781 au 
 Jupiter MOID = 2.03902 au 
 T_jup = 3.219 
[ show covariance matrix ]

Ephemeris | Orbit Diagram | Orbital Elements | Mission Design | Physical Parameters | Discovery Circumstances | Close-Approach Data ]

Physical Parameter Table
Parameter Symbol Value Units Sigma Reference Notes
absolute magnitude H 12.39   n/a E2021B10  
diameter diameter 10.025 km 0.212 urn:nasa:pds:neowise_diameters_albedos::2.0[mainbelt] (http://adsabs.harvard.edu/abs/2014ApJ...791..121M)  
rotation period rot_per 23.2912 h n/a LCDB (Rev. 2020-October); Warner et al., 2009 Result based on less than full coverage, so that the period may be wrong by 30 percent or so.
Published Reference List:
[Pal, A.; Szakats, R.; Kiss, C.; Bodi, A.; et al. (2019) Ap. J. Supl. Ser. 247, id.26.]
geometric albedo albedo 0.232   0.042 urn:nasa:pds:neowise_diameters_albedos::2.0[mainbelt] (http://adsabs.harvard.edu/abs/2014ApJ...791..121M)  

10195 Nebraska (1996 RS5)          Discovered 1996-Sep-13 by Linderholm, R. at Lime Creek
Reference: 19990302/Numbers.arcLast Updated: 2004-04-19

[ show close-approach data ]
Alternate Designations
 1996 RS5 = 1986 RB1 = 1986 TG9 = 1991 RA8 
Ephemeris | Orbit Diagram | Orbital Elements | Mission Design | Physical Parameters | Discovery Circumstances | Close-Approach Data ]
ABOUT SSD CREDITS/AWARDS PRIVACY/COPYRIGHT GLOSSARY LINKS
FirstGov 2021-Jun-21 13:57 UT
(server date/time)  
NASA Home Page
Site Manager:   Ryan S. Park
Webmaster  Alan B. Chamberlin